Overview Statistics Trail Chart Weather Telemetry Raw packets
 

This is the latest recevied weather packets stored in our database for station/object LU3HGB-WX. If no packets are shown the sender has not sent any weather packets the latest 10 day(s).

<< 19 20 21 22 23 24 25 >>
Time Temp. Humidity Pressure Rain* Wind** Luminosity Snow
1788547660 19.44° C 26% 1017 hPa 0 mm - 786 W/m² -
1788547359 19.44° C 25% 1017 hPa 0 mm - 796 W/m² -
1788547060 18.89° C 26% 1017 hPa 0 mm - 838 W/m² -
1788546760 18.89° C 27% 1017 hPa 0 mm - 822 W/m² -
1788546459 18.89° C 26% 1017 hPa 0 mm - 836 W/m² -
1788546164 18.89° C 27% 1017 hPa 0 mm - 877 W/m² -
1788545860 18.89° C 27% 1017 hPa 0 mm - 620 W/m² -
1788545560 18.89° C 27% 1017 hPa 0 mm - 862 W/m² -
1788545261 18.89° C 26% 1017 hPa 0 mm - 879 W/m² -
1788544960 18.33° C 26% 1017 hPa 0 mm - 955 W/m² -
1788544659 18.33° C 29% 1017 hPa 0 mm - 993 W/m² -
1788544359 17.78° C 28% 1017 hPa 0 mm - 748 W/m² -
1788544060 17.78° C 28% 1018 hPa 0 mm - 710 W/m² -
1788543759 17.78° C 29% 1018 hPa 0 mm - 474 W/m² -
1788543460 17.78° C 28% 1018 hPa 0 mm - 443 W/m² -
1788543160 18.33° C 28% 1018 hPa 0 mm - 504 W/m² -
1788542859 18.33° C 26% 1018 hPa 0 mm - 605 W/m² -
1788542559 18.33° C 30% 1018 hPa 0 mm - 706 W/m² -
1788542260 18.33° C 27% 1018 hPa 0 mm - 598 W/m² -
1788541960 18.33° C 28% 1018 hPa 0 mm - 1135 W/m² -
1788541660 17.22° C 31% 1018 hPa 0 mm - 1142 W/m² -
1788541360 17.22° C 29% 1018 hPa 0 mm - 507 W/m² -
1788541061 17.22° C 30% 1018 hPa 0 mm - 548 W/m² -
1788540760 17.22° C 30% 1018 hPa 0 mm - 485 W/m² -
1788540459 17.22° C 29% 1019 hPa 0 mm - 459 W/m² -

* Rain latest hour (hover to see other rain measurements)
** Current wind speed in m/s (hover to see current wind gust speed)